[[{"header":{"parameterUnit":"m.s-1","parameterCategory":1,"la1":30.2991,"la2":30.254,"lo1":-89.0895,"lo2":-89.0444,"dy":0.0017,"dx":0.0017,"nx":28,"ny":28,"refTime":"2024-05-01T21:00:00:Z","depth":0,"parameterNumber":2,"parameterNumberName":"U-component_of_WINDS"},"data":[0,0,0,0,0,0,0,0,0,0,0,0,0,0,0,0,0,0,0,0,0,0,0,0,0,0,0,0,0,0,0,0,0,0,0,0,0,0,0,0,0,0,0,0,0,0,0,0,0,0,0,0,0,0,0,0,0,0,-2.032,-2.032,0,-2.0358,-2.0358,-2.0359,-2.0341,-2.034,-2.0339,-2.0338,-2.0377,-2.0378,-2.038,0,0,0,0,0,0,0,0,0,0,0,0,0,-2.0233,-2.0234,-2.032,-2.032,-2.0321,-2.0358,-2.0358,-2.0359,-2.0341,-2.034,-2.0338,-2.0337,-2.0376,-2.0378,-2.0381,0,0,0,0,0,0,0,0,0,0,0,0,0,-2.0271,-2.0235,-2.032,-2.0316,-2.0316,-2.0358,-2.0358,-2.0359,-2.0341,-2.034,-2.0338,-2.0337,-2.0375,-2.0378,-2.0381,-2.0428,0,0,-2.039,-2.0391,0,0,0,0,0,0,0,0,-2.0268,-2.0274,-2.0316,-2.0317,-2.0317,-2.0343,-2.0342,-2.0382,-2.0341,-2.0332,-2.0338,-2.0336,-2.0367,-2.037,-2.038,-2.043,-2.0431,-2.039,-2.0392,-2.0393,-2.0394,0,0,0,0,0,0,0,-2.0266,-2.0272,-2.0335,-2.0317,-2.0317,-2.0313,-2.0317,-2.0349,-2.0357,-2.0332,-2.0331,-2.0336,-2.0366,-2.0378,-2.0381,-2.0432,-2.039,-2.0392,-2.0394,-2.0395,-2.0522,-2.0524,0,0,0,0,0,0,-2.0263,-2.027,-2.0334,-2.0336,-2.0289,-2.0316,-2.032,-2.0336,-2.0356,-2.0358,-2.0337,-2.0335,-2.0373,-2.0378,-2.0382,-2.0439,-2.0393,-2.0396,-2.0397,-2.0521,-2.0523,-2.0524,0,0,0,0,0,0,-2.0261,-2.0269,-2.0332,-2.0303,-2.031,-2.0319,-2.0337,-2.0338,-2.0349,-2.036,-2.0361,-2.0347,-2.0372,-2.0378,-2.0417,-2.044,-2.0397,-2.04,-2.0519,-2.0521,-2.0524,-2.0552,0,0,0,0,0,0,-2.0259,-2.0269,-2.0286,-2.0303,-2.0312,-2.0366,-2.0338,-2.0339,-2.0354,-2.0351,-2.037,-2.0371,-2.0372,-2.0413,-2.042,-2.0443,-2.0402,-2.0517,-2.052,-2.0523,-2.0549,-2.0556,-2.0561,0,0,0,0,0,-2.0256,-2.0293,-2.0287,-2.0295,-2.0334,-2.0367,-2.0372,-2.0372,-2.0356,-2.0374,-2.0381,-2.0371,-2.0437,-2.0417,-2.0425,-2.0449,-2.0515,-2.0519,-2.0523,-2.0547,-2.0554,-2.0561,0,0,0,0,0,0,-2.0278,-2.0295,-2.0289,-2.0332,-2.0349,-2.0364,-2.0387,-2.038,-2.0401,-2.0398,-2.0396,-2.0401,-2.0441,-2.0449,-2.0426,-2.0496,-2.0473,-2.0479,-2.0489,-2.0496,-2.0502,-2.0499,-2.0404,0,0,0,0,0,-2.0288,-2.0313,-2.0327,-2.0364,-2.0372,-2.0378,-2.0393,-2.0391,-2.0408,-2.0414,-2.0424,-2.0441,-2.0465,-2.0481,-2.0505,-2.0551,-2.0555,-2.0572,-2.0578,-2.0582,-2.0587,-2.0612,-2.062,-2.0536,-2.0536,-2.0536,0,0,-2.0309,-2.0321,-2.0337,-2.0369,-2.0381,-2.0407,-2.0384,-2.0413,-2.0432,-2.0419,-2.0455,-2.0464,-2.0482,-2.0525,-2.0544,-2.0533,-2.0611,-2.0587,-2.059,-2.0592,-2.0617,-2.0624,-2.0631,-2.0539,-2.0538,-2.0538,0,0,-2.0361,-2.0372,-2.0405,-2.0418,-2.0437,-2.044,-2.0448,-2.0465,-2.047,-2.0507,-2.0498,-2.0521,-2.0563,-2.0577,-2.0589,-2.0647,-2.0638,-2.0654,-2.0684,-2.0708,-2.0715,-2.0721,-2.0741,-2.0749,-2.0659,-2.0659,-2.0659,0,-2.0384,-2.0423,-2.0422,-2.0452,-2.0466,-2.0455,-2.0488,-2.0501,-2.0526,-2.0536,-2.0524,-2.0577,-2.0588,-2.0634,-2.0648,-2.0659,-2.0668,-2.0652,-2.0714,-2.072,-2.0725,-2.0745,-2.0753,-2.0661,-2.0661,-2.066,-2.066,0,-2.0451,-2.0478,-2.0502,-2.0527,-2.0544,-2.0575,-2.0579,-2.0597,-2.0594,-2.0599,-2.0638,-2.0651,-2.0677,-2.0688,-2.0686,-2.0734,-2.0726,-2.0714,-2.0691,-2.0735,-2.0753,-2.0761,-2.0663,-2.0663,-2.0662,-2.0662,0,0,-2.0517,-2.0541,-2.055,-2.0562,-2.0582,-2.0603,-2.0634,-2.066,-2.0674,-2.0693,-2.0719,-2.0755,-2.0744,-2.0758,-2.0757,-2.0779,-2.0824,-2.0764,-2.0764,-2.0774,-2.0878,-2.0887,-2.0895,-2.0818,-2.082,-2.0821,-2.0876,0,-2.0569,-2.0623,-2.0624,-2.0673,-2.0698,-2.0689,-2.0716,-2.0732,-2.0738,-2.076,-2.0767,-2.0793,-2.0776,-2.0785,-2.0806,-2.0814,-2.0844,-2.081,-2.0842,-2.0844,-2.0838,-2.0905,-2.0914,-2.0966,-2.0883,-2.0885,-2.0885,0,-2.0638,-2.0658,-2.0711,-2.0728,-2.0738,-2.0763,-2.0786,-2.0808,-2.0826,-2.0828,-2.0845,-2.0841,-2.0873,-2.0849,-2.0893,-2.0869,-2.0883,-2.0889,-2.0891,-2.0893,-2.0867,-2.0909,-2.0982,-2.099,-2.0897,-2.0896,-2.0895,0,-2.0681,-2.0721,-2.0758,-2.0768,-2.0789,-2.0806,-2.0816,-2.0832,-2.0848,-2.0868,-2.0878,-2.0903,-2.0916,-2.0935,-2.0938,-2.092,-2.0982,-2.0958,-2.0985,-2.0985,-2.0998,-2.0997,-2.1074,-2.1007,-2.1007,-2.1007,-2.1007,0,-2.0739,-2.0771,-2.0777,-2.08,-2.0836,-2.0836,-2.0872,-2.088,-2.0895,-2.0919,-2.0913,-2.0935,-2.0938,-2.0961,-2.0964,-2.1,-2.1006,-2.1009,-2.1009,-2.101,-2.1009,-2.1018,-2.1014,-2.1009,-2.1009,-2.1008,-2.1008,0,-2.0793,-2.0798,-2.0837,-2.0854,-2.0859,-2.0885,-2.0899,-2.0921,-2.0927,-2.0957,-2.0964,-2.0973,-2.1001,-2.1006,-2.1038,-2.104,-2.1083,-2.1079,-2.1076,-2.1076,-2.1102,-2.11,-2.1187,-2.1199,-2.1125,-2.1126,-2.1126,0,-2.0829,-2.0854,-2.0874,-2.0889,-2.09,-2.0925,-2.0941,-2.0943,-2.0959,-2.0982,-2.1001,-2.1028,-2.1049,-2.1094,-2.1103,-2.1128,-2.1125,-2.1154,-2.1129,-2.1128,-2.1125,-2.1124,-2.1126,-2.1159,-2.1159,-2.116,-2.1161,0,-2.0894,-2.0896,-2.0919,-2.0943,-2.0962,-2.0981,-2.0999,-2.1012,-2.1016,-2.1035,-2.1063,-2.108,-2.1113,-2.114,-2.1165,-2.1175,-2.1169,-2.1169,-2.1176,-2.1176,-2.1174,-2.1175,-2.1089,-2.1166,-2.1166,-2.1165,-2.1165,-2.1165,-2.0941,-2.0962,-2.0979,-2.1005,-2.1019,-2.1036,-2.1057,-2.1066,-2.1089,-2.1116,-2.1116,-2.1147,-2.1164,-2.1197,-2.1209,-2.1233,-2.1224,-2.1235,-2.1237,-2.124,-2.1242,-2.117,-2.1238,-2.1238,-2.1237,-2.1237,-2.1237,0,-2.1005,-2.1016,-2.104,-2.1065,-2.1085,-2.1078,-2.1098,-2.1115,-2.1142,-2.1159,-2.1181,-2.1213,-2.1239,-2.1251,-2.1277,-2.1294,-2.1292,-2.1301,-2.1299,-2.1302,-2.1249,-2.124,-2.1302,-2.1302,-2.1302,-2.1302,-2.1302,-2.1302,-2.1041,-2.1077,-2.1081,-2.1124,-2.1134,-2.1164,-2.1176,-2.1192,-2.1206,-2.1242,-2.1264,-2.1271,-2.1286,-2.1313,-2.1337,-2.134,-2.135,-2.136,-2.1361,-2.1312,-2.1305,-2.1299,-2.1291,-2.1362,-2.1362,-2.1412,-2.1412,-2.1413]},{"header":{"parameterUnit":"m.s-1","parameterCategory":1,"la1":30.2991,"la2":30.254,"lo1":-89.0895,"lo2":-89.0444,"dy":0.0017,"dx":0.0017,"nx":28,"ny":28,"refTime":"2024-05-01T21:00:00:Z","depth":0,"parameterNumber":3,"parameterNumberName":"V-component_of_WINDS"},"data":[0,0,0,0,0,0,0,0,0,0,0,0,0,0,0,0,0,0,0,0,0,0,0,0,0,0,0,0,0,0,0,0,0,0,0,0,0,0,0,0,0,0,0,0,0,0,0,0,0,0,0,0,0,0,0,0,0,0,2.3234,2.3234,0,2.3226,2.3225,2.3225,2.3182,2.3181,2.318,2.3179,2.317,2.3171,2.3172,0,0,0,0,0,0,0,0,0,0,0,0,0,2.3215,2.3216,2.3234,2.3234,2.3234,2.3226,2.3225,2.3225,2.3182,2.3181,2.318,2.3179,2.317,2.3171,2.3172,0,0,0,0,0,0,0,0,0,0,0,0,0,2.3217,2.3216,2.3234,2.3212,2.321,2.3226,2.3225,2.3225,2.3183,2.3181,2.318,2.3178,2.317,2.3171,2.3172,2.3209,0,0,2.3175,2.3176,0,0,0,0,0,0,0,0,2.3217,2.3217,2.3215,2.3213,2.3211,2.3203,2.3215,2.322,2.3183,2.3193,2.3179,2.3177,2.3183,2.3182,2.3184,2.3208,2.3208,2.3175,2.3176,2.3176,2.3177,0,0,0,0,0,0,0,2.3217,2.3218,2.3231,2.3215,2.3213,2.3202,2.3201,2.3216,2.3196,2.3192,2.3189,2.3188,2.3181,2.3183,2.3184,2.3208,2.3175,2.3176,2.3177,2.3177,2.3263,2.3265,0,0,0,0,0,0,2.322,2.3218,2.3231,2.3231,2.321,2.3204,2.3202,2.3207,2.3196,2.3193,2.319,2.3186,2.3182,2.3182,2.3183,2.3226,2.3176,2.3177,2.3178,2.3262,2.3264,2.3266,0,0,0,0,0,0,2.3219,2.3221,2.3232,2.3223,2.3224,2.3206,2.3212,2.3208,2.321,2.3194,2.3191,2.3195,2.3181,2.3182,2.3203,2.3226,2.3178,2.3179,2.326,2.3262,2.3265,2.3313,0,0,0,0,0,0,2.3219,2.3221,2.3235,2.3224,2.3224,2.3252,2.3213,2.3209,2.3212,2.3208,2.3199,2.3196,2.318,2.3202,2.3204,2.3226,2.318,2.3258,2.3261,2.3264,2.3309,2.3317,2.3323,0,0,0,0,0,2.3218,2.3249,2.3236,2.3238,2.3241,2.3253,2.3253,2.3234,2.3214,2.3228,2.3218,2.3196,2.3223,2.3204,2.3207,2.3229,2.3256,2.326,2.3264,2.3306,2.3315,2.3323,0,0,0,0,0,0,2.3263,2.3247,2.3232,2.326,2.3258,2.3246,2.3262,2.3244,2.3248,2.3244,2.322,2.3218,2.3244,2.3238,2.3218,2.3265,2.3236,2.324,2.3267,2.3276,2.3283,2.3284,2.318,0,0,0,0,0,2.3276,2.3286,2.3272,2.3298,2.3298,2.328,2.3285,2.327,2.3267,2.3266,2.3258,2.3256,2.3264,2.327,2.3276,2.3309,2.3306,2.3325,2.3332,2.3338,2.3342,2.336,2.3369,2.3278,2.3278,2.3278,0,0,2.3303,2.3295,2.3303,2.3307,2.3303,2.3316,2.328,2.3294,2.3303,2.3268,2.3288,2.3282,2.3279,2.3306,2.3318,2.3303,2.3367,2.3343,2.3348,2.3349,2.3365,2.3373,2.3381,2.328,2.328,2.3279,0,0,2.3358,2.3353,2.3375,2.3372,2.3368,2.3357,2.3362,2.3352,2.3347,2.3367,2.3342,2.3352,2.3366,2.3364,2.3366,2.3422,2.3402,2.3425,2.3461,2.3479,2.3486,2.3492,2.3513,2.352,2.3429,2.3429,2.3429,0,2.3392,2.3409,2.3388,2.3404,2.3406,2.3376,2.3398,2.3397,2.3395,2.3398,2.3381,2.3399,2.3394,2.3421,2.3435,2.3437,2.3442,2.3425,2.3486,2.3492,2.3498,2.3518,2.3525,2.3432,2.3431,2.3431,2.3431,0,2.3451,2.3463,2.3481,2.3481,2.3485,2.3504,2.3487,2.3494,2.3479,2.347,2.3491,2.3484,2.3489,2.3494,2.348,2.352,2.3511,2.3491,2.3461,2.351,2.3528,2.3535,2.3436,2.3435,2.3434,2.3433,0,0,2.3533,2.3522,2.3529,2.3529,2.3523,2.3532,2.355,2.3555,2.3562,2.3562,2.3576,2.3589,2.3571,2.3572,2.3558,2.3573,2.3619,2.3551,2.3551,2.3565,2.3664,2.3679,2.3688,2.3606,2.3607,2.3609,2.3664,0,2.3587,2.3617,2.3599,2.3632,2.3643,2.3615,2.3631,2.3629,2.3621,2.363,2.362,2.363,2.3605,2.3606,2.362,2.3611,2.3639,2.3606,2.362,2.3621,2.3622,2.3697,2.3714,2.3766,2.3671,2.3672,2.3673,0,2.3653,2.3656,2.3691,2.3683,2.3687,2.3702,2.3705,2.3714,2.3711,2.3704,2.3707,2.3689,2.3706,2.3677,2.3701,2.3679,2.3684,2.368,2.3682,2.3683,2.365,2.3701,2.3783,2.3791,2.3684,2.3683,2.3682,0,2.3711,2.3724,2.3746,2.3747,2.3738,2.3749,2.3746,2.3742,2.3747,2.375,2.3753,2.3758,2.3761,2.3766,2.375,2.373,2.3777,2.3746,2.3772,2.3772,2.3783,2.3783,2.3867,2.3785,2.3785,2.3785,2.3785,0,2.3772,2.3794,2.3772,2.3786,2.381,2.379,2.3814,2.3808,2.3805,2.3817,2.3793,2.3806,2.3784,2.3794,2.3781,2.3804,2.3805,2.38,2.3797,2.3803,2.3803,2.3806,2.3802,2.3787,2.3787,2.3786,2.3786,0,2.3841,2.3827,2.3849,2.384,2.3838,2.3856,2.3848,2.3861,2.3851,2.3867,2.387,2.3855,2.3865,2.385,2.3859,2.3851,2.3882,2.3872,2.3883,2.388,2.3907,2.3905,2.3997,2.4008,2.3919,2.3919,2.392,0,2.3881,2.3898,2.389,2.3897,2.3896,2.3907,2.3911,2.3892,2.3898,2.3897,2.391,2.3919,2.3925,2.3944,2.3934,2.3941,2.3932,2.3963,2.3933,2.3938,2.3933,2.3933,2.3934,2.397,2.3971,2.3972,2.3972,0,2.3955,2.3948,2.3955,2.3961,2.3968,2.3971,2.3973,2.398,2.396,2.3968,2.3979,2.3984,2.3993,2.4002,2.4007,2.4004,2.3985,2.3982,2.3989,2.3995,2.4001,2.3999,2.3901,2.398,2.3979,2.3979,2.3978,2.3978,2.4011,2.4025,2.4022,2.4032,2.4032,2.4034,2.4046,2.4038,2.4047,2.4053,2.4041,2.4056,2.4053,2.4058,2.4057,2.4068,2.4054,2.4063,2.4066,2.4069,2.4073,2.3999,2.4069,2.4068,2.4068,2.4068,2.4068,0,2.4084,2.4082,2.4091,2.4095,2.4103,2.4084,2.4086,2.4093,2.4106,2.4106,2.4113,2.4126,2.4135,2.4126,2.4133,2.4144,2.4136,2.4147,2.4146,2.4146,2.4085,2.4079,2.4153,2.4153,2.4153,2.4153,2.4153,2.4153,2.4124,2.4146,2.4139,2.4161,2.4158,2.4172,2.4174,2.4177,2.4176,2.4192,2.42,2.4194,2.419,2.4198,2.4205,2.4202,2.4207,2.4221,2.4215,2.4158,2.415,2.4142,2.4136,2.4222,2.4222,2.4275,2.4276,2.4276]}]]